Temp
59 59 59 59 59 59 59 59 59 59 59 59 59 59 60 60 59 50 49 64 61 68 70 67 66 65 65 59 61 59 48 45 51 52 54 62 59 66 71 69 71 74 75 78 78
59 59 59 59 58 59 59 59 59 58 59 59 59 59 59 59 50 47 63 69 70 70 65 63 60 62 56 55 57 54 45 50 56 57 56 60 59 62 66 67 66 71 76 78 76
58 58 58 58 58 58 58 58 58 59 59 59 59 59 59 57 47 61 72 70 70 70 67 65 63 61 53 53 53 50 49 54 58 61 62 61 62 65 63 61 66 68 72 75 76
59 58 58 58 58 58 57 57 58 58 58 58 58 58 59 50 47 64 73 70 71 67 65 63 58 52 48 49 54 48 57 58 59 62 59 60 64 62 65 68 72 73 72 73 72
58 58 58 58 58 57 57 57 57 58 58 58 58 58 51 46 55 67 72 72 67 66 64 61 56 53 48 51 53 49 54 58 62 60 59 61 61 61 61 69 71 71 70 72 70
57 57 57 57 58 57 57 57 57 57 57 58 58 58 47 45 65 69 67 65 66 63 64 61 59 59 53 51 50 56 54 55 58 59 58 58 60 61 65 70 69 69 69 67 70
57 57 57 57 57 57 57 57 56 57 57 58 58 57 47 54 66 65 67 62 65 67 64 64 63 59 57 51 54 53 49 53 56 57 58 59 58 58 64 67 67 68 68 70 69
57 57 56 56 57 57 57 57 57 57 58 59 60 51 48 63 63 62 63 65 67 67 65 66 64 57 53 54 54 49 45 40 52 56 60 58 49 62 62 61 62 64 65 66 67
57 56 56 56 57 57 56 56 57 58 59 61 50 46 50 67 64 68 67 66 69 68 66 75 62 54 54 46 42 42 38 39 48 54 55 53 48 59 63 61 60 60 61 63 63
57 56 56 56 56 56 55 56 58 58 58 60 60 48 56 61 68 69 67 69 65 64 63 59 52 47 43 42 34 37 38 43 44 52 51 49 50 56 60 58 59 59 59 59 60
57 56 56 56 56 55 51 50 51 49 50 53 56 56 62 70 72 67 68 66 64 59 49 51 46 42 47 48 49 47 43 43 48 56 50 49 49 54 57 56 56 58 58 59 60
56 56 56 56 56 55 47 52 57 57 47 58 58 59 66 68 61 65 71 61 56 49 50 47 42 51 53 52 49 47 43 42 48 53 49 48 48 53 54 55 57 58 59 60 59
56 56 56 56 55 49 51 58 62 57 46 55 59 58 60 64 58 60 67 60 54 49 48 44 50 56 53 50 47 45 42 43 45 50 49 46 43 48 55 54 58 58 58 59 59
56 56 56 55 51 52 55 63 59 58 41 50 56 60 63 63 57 68 69 63 53 51 50 47 54 53 49 48 49 42 50 52 49 42 37 47 37 45 49 52 54 57 56 57 59
55 56 55 55 49 54 61 59 59 59 32 57 57 68 63 60 61 61 68 62 53 52 51 49 49 47 47 51 52 47 52 50 48 41 35 40 34 39 45 47 52 55 57 58 59
55 56 54 50 48 53 58 60 61 45 35 55 60 58 56 59 61 62 62 64 61 53 50 52 55 54 53 57 56 56 49 43 38 36 29 39 37 38 43 49 52 56 57 58 59
55 54 52 56 55 58 58 59 44 37 56 52 55 59 57 54 57 57 55 52 48 41 41 50 52 55 57 50 56 49 39 29 28 29 33 42 36 40 48 54 53 53 54 55 57
53 52 51 55 56 58 59 52 37 49 49 59 58 58 54 57 56 58 54 49 52 48 41 38 40 53 59 53 47 45 42 31 25 24 33 40 32 40 50 52 52 53 52 54 53
51 47 50 55 56 56 55 39 42 49 55 53 56 49 49 54 54 53 51 51 54 50 41 37 40 54 57 59 56 49 43 49 38 32 27 34 38 46 49 49 51 51 52 51 52
42 45 55 60 60 58 49 43 49 56 57 56 46 50 43 47 49 48 49 56 54 56 51 45 35 48 54 55 56 52 54 39 37 26 23 29 31 35 43 45 47 48 49 50 51
44 49 58 61 60 53 42 46 53 58 58 52 48 45 46 43 47 45 46 54 55 54 53 48 40 40 50 45 45 46 40 41 39 36 27 29 30 41 42 43 45 47 50 48 49
41 43 58 58 48 44 42 49 52 54 57 54 54 50 47 47 45 45 46 51 56 54 46 47 41 33 38 51 55 50 44 44 32 30 34 32 30 45 44 47 46 47 51 52 51
37 39 53 56 39 38 44 48 52 49 50 50 49 50 48 45 39 43 46 54 54 50 45 44 36 28 33 40 47 41 43 41 38 34 29 26 30 47 48 47 49 45 48 49 51
39 36 41 43 41 38 36 40 43 52 49 50 48 48 43 40 45 37 41 49 52 50 52 45 36 33 30 35 39 35 39 40 36 30 31 32 36 42 42 41 42 44 46 48 50
38 34 37 31 35 35 35 39 39 40 46 47 44 43 40 35 37 37 42 44 46 49 48 40 33 35 37 40 42 41 40 42 38 38 29 36 36 42 40 40 42 45 46 48 50
37 36 37 35 44 42 36 34 38 42 43 41 39 43 41 36 38 35 39 39 36 43 40 39 31 37 34 41 40 36 40 41 40 40 39 38 37 40 42 43 43 44 46 47 48
39 39 38 38 40 40 39 41 40 42 42 45 43 40 37 40 44 44 43 43 41 38 36 35 34 32 29 38 35 30 37 39 39 39 37 31 36 39 38 41 41 42 44 45 46
MSLP
1017.56 1017.27 1017.10 1016.88 1016.68 1016.42 1016.18 1016.04 1015.88 1015.67 1015.48 1015.29 1015.00 1014.76 1014.56 1014.38 1014.04 1013.82 1012.89 1010.44 1010.44 1010.18 1010.26 1010.23 1010.05 1010.26 1010.54 1010.75 1010.99 1011.61 1012.93 1013.17 1012.70 1011.74 1010.84 1010.00 1009.69 1009.16 1008.40 1008.26 1007.74 1006.97 1006.65 1005.97 1005.86
1017.39 1017.13 1016.88 1016.68 1016.50 1016.29 1016.09 1015.86 1015.69 1015.52 1015.28 1015.02 1014.85 1014.68 1014.45 1014.16 1013.95 1012.89 1009.80 1009.71 1009.69 1009.85 1010.09 1010.13 1010.48 1010.70 1011.13 1011.30 1011.35 1011.92 1012.94 1012.69 1011.70 1011.06 1010.78 1010.26 1010.04 1009.44 1008.97 1008.21 1007.83 1007.42 1006.61 1006.57 1006.07
1017.24 1016.89 1016.60 1016.39 1016.22 1016.11 1016.01 1015.83 1015.58 1015.35 1015.13 1014.95 1014.76 1014.56 1014.36 1014.11 1013.40 1010.00 1008.62 1009.26 1009.65 1009.77 1009.93 1010.17 1010.41 1010.61 1011.21 1011.50 1011.90 1012.32 1012.48 1011.88 1011.19 1010.77 1010.69 1010.36 1009.78 1009.37 1009.06 1008.37 1008.00 1007.75 1006.96 1006.99 1006.60
1017.12 1016.75 1016.39 1016.06 1015.87 1015.76 1015.72 1015.63 1015.46 1015.22 1014.99 1014.75 1014.55 1014.40 1014.11 1014.02 1011.96 1008.97 1008.32 1009.06 1009.48 1009.87 1010.11 1010.32 1010.60 1011.11 1011.52 1011.69 1011.70 1012.10 1011.57 1011.38 1010.85 1010.24 1010.28 1010.00 1009.34 1009.23 1008.89 1008.21 1007.26 1007.04 1007.19 1007.11 1006.73
1017.10 1016.61 1016.24 1015.91 1015.58 1015.38 1015.26 1015.20 1015.08 1014.91 1014.73 1014.55 1014.38 1014.28 1014.03 1013.22 1010.70 1008.95 1008.90 1009.22 1009.82 1010.16 1010.28 1010.42 1010.72 1011.13 1011.32 1011.43 1011.54 1011.63 1011.37 1011.06 1010.41 1010.20 1009.81 1009.36 1009.16 1008.74 1008.50 1007.61 1006.94 1006.75 1007.04 1006.96 1006.54
1017.02 1016.56 1016.14 1015.77 1015.47 1015.26 1015.04 1014.90 1014.76 1014.61 1014.48 1014.38 1014.32 1014.26 1014.05 1012.22 1009.12 1009.01 1009.30 1009.69 1009.76 1009.96 1010.12 1010.24 1010.26 1010.50 1010.84 1011.20 1011.39 1011.48 1011.44 1011.12 1010.54 1010.00 1009.53 1009.19 1008.70 1008.53 1008.03 1007.26 1007.06 1006.99 1006.75 1006.93 1007.00
1016.89 1016.44 1016.01 1015.61 1015.24 1014.95 1014.73 1014.54 1014.40 1014.30 1014.23 1014.12 1014.08 1014.01 1013.42 1010.43 1009.06 1009.16 1009.36 1009.50 1009.56 1009.60 1009.78 1009.80 1009.89 1010.16 1010.61 1010.99 1011.21 1011.32 1011.50 1011.08 1010.45 1009.65 1009.32 1008.98 1008.53 1008.51 1007.88 1007.51 1007.46 1007.52 1007.37 1006.98 1006.82
1016.71 1016.30 1015.86 1015.44 1015.01 1014.60 1014.30 1014.09 1013.94 1013.90 1013.86 1013.82 1013.83 1013.84 1011.92 1009.25 1009.07 1009.08 1009.27 1009.28 1009.36 1009.48 1009.60 1009.54 1009.67 1010.16 1010.54 1011.07 1011.56 1011.90 1011.99 1011.61 1010.22 1009.58 1009.00 1009.06 1008.73 1008.02 1008.05 1008.20 1008.47 1008.16 1007.98 1007.56 1006.80
1016.54 1016.08 1015.62 1015.14 1014.71 1014.35 1014.00 1013.69 1013.46 1013.44 1013.54 1013.50 1013.81 1013.46 1010.84 1008.86 1008.91 1008.38 1008.71 1008.98 1009.04 1009.26 1009.39 1009.56 1009.80 1010.86 1011.34 1012.05 1012.84 1013.11 1012.81 1012.19 1011.10 1009.74 1009.62 1009.63 1009.45 1008.58 1008.08 1008.13 1008.20 1008.29 1008.02 1007.57 1007.02
1016.43 1015.90 1015.45 1014.96 1014.47 1014.04 1013.65 1013.09 1013.03 1013.18 1013.42 1013.50 1013.20 1013.05 1010.18 1008.51 1007.89 1007.95 1008.27 1008.68 1009.01 1009.29 1009.47 1009.92 1010.82 1011.61 1012.46 1012.93 1013.37 1013.30 1013.05 1012.44 1011.80 1010.52 1010.24 1010.25 1010.11 1009.34 1008.64 1008.53 1008.33 1008.18 1007.86 1007.70 1007.42
1016.31 1015.72 1015.18 1014.72 1014.28 1013.95 1013.58 1013.21 1013.42 1013.19 1012.82 1011.57 1011.02 1010.48 1009.22 1008.03 1007.36 1007.73 1008.05 1008.81 1009.23 1009.61 1010.25 1010.70 1011.45 1011.98 1012.20 1012.42 1012.43 1012.66 1012.73 1012.46 1011.52 1010.38 1010.82 1010.30 1010.16 1009.62 1008.92 1008.68 1008.43 1008.30 1008.03 1007.59 1007.25
1016.13 1015.56 1014.88 1014.26 1013.79 1013.52 1013.82 1012.76 1011.75 1011.74 1011.37 1009.92 1009.48 1009.32 1008.58 1008.27 1008.20 1007.62 1007.73 1008.79 1009.48 1010.18 1010.58 1011.38 1011.44 1011.28 1011.58 1011.94 1012.25 1012.47 1012.53 1012.10 1011.22 1010.22 1010.74 1010.04 1009.95 1009.25 1009.16 1008.46 1008.02 1007.91 1007.83 1007.28 1006.90
1015.82 1015.19 1014.53 1013.85 1013.32 1013.47 1012.82 1011.68 1010.88 1011.26 1011.42 1009.08 1008.58 1008.26 1007.93 1008.16 1008.16 1007.51 1007.69 1008.31 1009.12 1010.10 1010.64 1011.16 1010.42 1010.38 1011.11 1011.34 1011.81 1011.82 1012.02 1011.73 1011.46 1010.36 1010.18 1010.07 1009.74 1009.12 1008.38 1007.99 1007.63 1007.37 1007.08 1006.94 1006.80
1015.49 1014.80 1014.27 1013.61 1013.33 1012.86 1011.90 1010.79 1010.78 1010.93 1010.76 1008.73 1007.82 1007.10 1007.33 1007.44 1007.51 1006.74 1007.10 1008.06 1008.88 1009.55 1010.60 1010.72 1009.63 1010.08 1010.56 1010.73 1011.02 1011.14 1010.60 1010.80 1011.04 1011.32 1011.16 1010.41 1009.41 1009.10 1008.38 1007.97 1007.44 1006.95 1006.98 1006.62 1006.22
1015.02 1014.45 1014.04 1013.93 1013.38 1012.52 1011.02 1010.64 1010.57 1010.76 1009.92 1007.61 1006.94 1006.27 1006.76 1007.04 1006.62 1006.51 1006.70 1007.43 1008.26 1009.29 1010.15 1009.62 1009.38 1009.60 1009.81 1009.25 1009.92 1010.07 1010.01 1010.68 1011.02 1011.38 1011.34 1011.00 1010.57 1008.85 1008.60 1008.03 1007.34 1006.74 1006.28 1005.94 1005.70
1014.42 1013.75 1013.46 1013.16 1013.33 1011.42 1010.72 1010.54 1010.52 1010.88 1008.83 1007.03 1006.62 1006.56 1007.10 1006.82 1006.54 1006.52 1006.81 1007.16 1007.75 1009.01 1009.45 1009.18 1008.94 1008.98 1008.62 1008.58 1009.10 1009.34 1009.93 1010.66 1011.30 1011.88 1011.64 1010.87 1010.38 1008.90 1008.38 1007.46 1006.80 1006.28 1006.02 1005.89 1005.76
1013.72 1012.81 1012.74 1012.18 1011.60 1010.89 1010.72 1010.71 1011.02 1010.16 1008.36 1007.87 1007.17 1006.88 1006.85 1006.95 1006.85 1006.86 1007.16 1007.67 1008.20 1009.04 1009.26 1008.90 1008.69 1008.40 1008.36 1008.58 1008.52 1009.37 1010.44 1011.58 1011.84 1012.14 1010.76 1010.11 1009.80 1008.40 1007.48 1006.82 1006.70 1006.83 1006.63 1006.32 1005.98
1013.00 1011.97 1011.73 1011.41 1010.98 1010.94 1010.77 1011.00 1010.89 1009.80 1009.13 1008.33 1007.80 1007.26 1007.35 1007.54 1007.48 1007.36 1007.52 1007.85 1007.99 1008.69 1009.25 1009.40 1008.77 1008.02 1007.66 1007.94 1008.28 1008.89 1009.89 1011.24 1011.06 1011.67 1011.10 1010.54 1009.30 1007.72 1006.82 1006.74 1006.74 1007.09 1006.96 1006.56 1006.06
1012.45 1011.84 1011.66 1010.85 1010.69 1011.10 1011.24 1011.45 1011.02 1010.34 1009.74 1009.14 1008.49 1008.58 1008.82 1008.66 1008.71 1008.51 1008.48 1008.36 1008.37 1008.69 1009.32 1009.48 1009.11 1008.18 1007.82 1007.66 1007.82 1008.20 1009.07 1009.40 1010.61 1011.24 1011.21 1010.30 1008.98 1007.83 1007.09 1006.87 1007.05 1007.40 1007.06 1006.80 1006.34
1013.38 1012.88 1011.80 1011.02 1010.81 1010.84 1011.45 1011.66 1011.16 1010.78 1010.09 1009.74 1009.98 1010.15 1010.28 1010.30 1010.14 1010.16 1009.84 1009.08 1008.87 1008.93 1009.04 1009.55 1009.76 1009.14 1008.50 1008.12 1007.83 1007.89 1008.51 1009.71 1011.10 1012.06 1011.21 1009.91 1009.36 1008.32 1007.64 1007.51 1007.36 1007.12 1007.01 1006.86 1006.40
1013.53 1013.04 1011.68 1010.92 1010.98 1011.43 1012.21 1012.17 1011.47 1011.12 1010.92 1011.17 1011.26 1011.66 1011.73 1011.98 1011.68 1011.54 1010.83 1009.95 1009.70 1009.73 1009.82 1009.94 1010.48 1010.26 1009.74 1009.04 1008.39 1008.59 1009.28 1010.28 1011.38 1011.94 1011.52 1010.14 1008.89 1007.88 1007.80 1008.04 1008.04 1007.76 1007.33 1007.03 1006.44
1014.65 1013.91 1011.97 1011.11 1012.28 1013.32 1013.51 1013.26 1012.46 1011.91 1011.74 1011.63 1011.73 1012.26 1012.17 1012.26 1012.24 1011.80 1010.97 1010.63 1010.76 1010.48 1010.59 1010.97 1011.01 1011.28 1010.40 1009.15 1008.88 1009.56 1009.92 1010.86 1011.76 1012.08 1011.61 1010.99 1008.86 1008.02 1008.11 1008.08 1008.10 1007.86 1007.50 1006.82 1006.42
1016.48 1015.48 1012.70 1012.26 1014.16 1015.09 1014.82 1014.17 1013.46 1013.12 1012.80 1012.45 1012.38 1012.53 1012.83 1013.11 1013.17 1012.48 1011.72 1011.48 1011.37 1011.46 1011.78 1012.31 1012.40 1012.22 1010.98 1010.26 1009.88 1010.32 1010.87 1011.37 1011.82 1012.16 1011.62 1011.31 1009.18 1008.28 1008.06 1008.40 1008.40 1008.24 1007.70 1007.12 1006.45
1017.17 1016.85 1015.90 1015.49 1016.43 1016.58 1016.47 1015.36 1014.54 1013.91 1013.74 1013.52 1013.37 1013.40 1013.93 1014.10 1013.80 1013.68 1012.81 1012.07 1011.98 1012.42 1012.56 1013.45 1013.20 1012.70 1011.96 1011.38 1011.25 1011.16 1011.14 1011.53 1011.90 1011.70 1011.08 1010.51 1008.96 1009.10 1009.28 1009.38 1009.06 1008.70 1008.28 1007.59 1006.78
1018.10 1019.07 1018.70 1018.15 1017.86 1017.81 1017.33 1016.30 1015.68 1015.11 1014.80 1014.47 1014.25 1014.50 1014.90 1014.92 1014.54 1013.87 1013.30 1013.08 1012.96 1012.81 1012.80 1013.80 1013.48 1013.11 1012.57 1012.02 1011.40 1011.06 1010.61 1010.56 1010.72 1010.63 1010.92 1009.77 1009.61 1009.27 1009.63 1009.56 1009.28 1008.91 1008.44 1007.78 1007.15
1019.06 1019.47 1019.07 1018.86 1018.40 1017.90 1017.48 1016.95 1016.48 1015.98 1015.86 1015.40 1015.28 1015.07 1015.36 1015.42 1015.16 1014.29 1014.22 1013.98 1013.76 1012.93 1013.08 1013.84 1013.86 1013.25 1012.58 1011.64 1010.85 1010.48 1009.96 1009.96 1010.02 1009.99 1010.01 1009.89 1009.42 1009.72 1009.75 1009.60 1009.38 1008.95 1008.62 1007.93 1007.24
1019.38 1019.38 1019.30 1019.15 1018.55 1018.12 1017.61 1017.23 1016.92 1016.81 1016.00 1015.74 1015.68 1015.64 1015.41 1014.98 1014.58 1013.98 1013.66 1013.40 1013.38 1013.29 1013.46 1013.58 1013.76 1013.53 1012.51 1011.60 1011.00 1010.26 1009.18 1009.20 1009.54 1009.57 1009.79 1009.98 1009.93 1010.03 1009.91 1009.69 1009.43 1009.01 1008.42 1007.66 1007.20
Wind_Speed
13 13 12 12 12 12 12 11 11 11 10 11 11 12 11 12 11 0 6 10 5 7 4 1 2 3 3 3 3 3 4 3 6 6 5 3 5 5 3 5 4 3 3 5 4
14 13 12 12 11 11 11 11 11 11 10 10 10 11 11 11 3 7 13 9 10 5 2 3 3 4 3 1 2 5 4 9 5 4 2 4 2 4 4 7 5 6 6 5 6
15 13 13 12 11 11 11 11 10 10 10 10 11 11 11 7 3 6 6 12 10 6 3 3 3 3 3 2 3 4 6 4 5 7 4 4 6 4 3 8 7 7 9 6 6
16 14 13 12 12 11 11 10 9 9 10 11 11 10 11 1 3 4 3 14 10 6 4 4 3 4 4 4 4 2 6 4 4 4 2 5 4 4 7 13 10 10 4 8 8
16 15 14 13 12 11 10 10 9 10 9 9 9 8 4 2 9 3 13 12 7 6 6 5 4 4 4 4 3 3 3 3 7 9 6 4 8 6 5 11 11 10 4 8 7
17 16 15 13 11 11 10 10 9 10 9 7 5 4 2 3 2 2 8 7 6 5 5 5 5 5 4 3 4 6 3 4 7 7 6 5 5 5 5 8 8 7 10 4 8
17 17 16 14 12 11 11 10 9 9 7 5 4 2 0 13 2 1 7 5 5 3 4 3 3 3 4 2 0 1 4 4 5 5 6 4 10 6 4 3 8 10 9 11 8
18 17 17 15 14 12 11 11 10 9 6 4 4 2 8 4 1 3 4 2 4 4 2 3 2 2 2 2 7 4 5 4 7 3 6 6 9 10 3 4 7 10 9 10 12
20 19 19 17 15 14 13 13 12 8 5 6 3 1 10 6 3 5 6 3 5 4 3 3 2 2 5 5 5 6 4 4 9 5 2 4 5 5 6 7 8 6 7 8 9
22 20 18 18 17 15 14 10 4 7 3 3 4 3 5 2 3 5 4 4 2 2 4 4 5 3 4 5 5 3 2 4 5 5 1 5 9 10 11 4 9 9 8 7 9
22 21 20 19 18 12 8 1 3 1 2 9 6 4 5 6 1 4 5 6 2 3 4 2 4 6 9 7 5 2 3 7 8 13 3 8 8 12 10 6 9 8 7 8 8
23 22 21 20 17 15 2 2 3 3 8 11 14 7 6 3 5 1 7 6 5 6 3 5 6 10 5 4 5 4 6 8 9 11 6 10 10 10 7 7 8 7 9 9 7
23 22 21 21 20 2 3 5 5 4 2 7 5 6 6 9 6 6 9 5 5 6 6 8 9 5 6 5 4 5 5 6 9 5 3 4 5 6 6 4 6 9 9 7 10
23 22 20 21 1 2 4 3 2 5 4 7 4 5 5 7 4 9 8 7 2 10 7 6 7 7 5 6 9 7 10 11 6 1 7 4 12 8 6 10 7 10 9 10 11
24 23 19 6 5 3 0 3 2 3 4 1 1 3 4 8 2 1 4 4 8 6 6 10 3 3 6 14 6 10 2 8 7 6 0 4 7 7 1 7 11 10 11 11 11
26 25 20 1 3 8 7 5 3 4 5 3 4 4 5 3 3 3 3 4 4 6 3 8 0 6 8 5 8 5 3 2 4 3 5 9 8 4 6 9 6 7 7 9 10
29 28 15 4 3 3 4 2 3 2 5 6 4 1 4 3 3 3 4 5 6 3 5 7 13 7 4 7 11 4 4 5 5 3 12 6 4 8 7 9 7 8 10 11 11
30 26 3 4 2 5 1 4 2 2 3 4 5 6 4 7 4 4 3 1 2 3 2 3 10 6 4 8 10 7 9 7 7 4 8 3 7 7 7 3 2 0 3 7 10
24 4 0 4 4 1 4 2 2 4 6 7 5 6 7 6 7 8 6 3 2 3 5 2 5 5 4 2 6 3 5 3 2 2 4 6 6 6 1 1 6 8 7 8 9
4 4 4 4 2 2 5 2 1 5 7 8 7 6 6 6 5 6 3 3 4 0 1 3 4 3 8 2 6 7 2 1 2 5 8 4 5 7 6 4 6 9 9 9 8
4 5 4 7 1 5 3 1 1 10 10 6 4 5 5 6 5 8 6 9 7 2 5 2 3 3 3 6 8 2 2 2 1 3 7 12 5 6 4 2 6 9 9 9 9
3 4 5 5 5 2 2 6 9 7 5 4 5 8 9 6 6 6 10 5 4 2 4 3 2 4 10 12 11 12 17 12 7 5 5 3 7 1 2 2 5 10 13 11 8
3 3 5 3 3 3 6 5 3 5 5 5 3 3 4 1 5 7 4 7 11 7 3 5 2 4 6 1 4 2 3 2 0 1 5 4 5 2 8 14 12 10 12 11 11
3 5 6 6 3 4 5 4 4 8 2 4 3 4 4 3 3 5 5 5 11 8 14 6 4 6 10 3 6 7 9 10 6 4 4 9 19 15 6 7 8 8 10 11 10
4 1 2 4 3 3 2 3 3 4 6 6 2 3 3 3 7 6 5 6 8 10 5 5 5 6 6 14 15 17 20 16 15 14 8 16 17 14 4 5 6 6 7 10 10
3 3 4 1 5 6 4 2 4 3 3 5 6 5 6 5 9 17 13 5 6 5 7 8 4 5 11 16 17 15 17 15 14 15 15 16 19 2 5 5 6 6 12 15 12
1 2 4 3 4 4 1 4 6 10 5 7 4 8 10 14 12 12 11 14 12 10 5 6 5 1 7 4 4 7 7 9 3 3 3 4 1 5 8 11 12 12 17 16 13
Wind_Direction
329 325 319 315 311 311 309 312 312 314 314 313 316 316 320 319 322 84 242 221 199 207 154 127 46 57 56 57 73 105 69 200 221 178 239 316 25 305 270 259 339 294 303 274 73
330 324 319 316 312 309 310 308 311 312 311 312 314 313 317 326 283 236 241 209 214 119 108 81 91 114 52 69 42 97 135 219 219 202 233 272 278 286 313 314 292 302 313 352 112
334 327 322 316 312 309 305 304 304 306 308 309 309 312 312 326 294 244 188 193 193 172 97 123 104 100 112 129 175 160 204 223 251 240 213 259 278 200 246 294 220 266 290 285 191
338 333 325 320 313 309 305 302 301 298 302 306 308 311 312 215 175 16 132 163 172 145 102 110 90 89 127 180 172 174 247 211 270 266 273 226 243 261 195 249 255 246 247 262 210
336 336 330 322 316 310 305 301 298 300 302 302 305 309 332 300 253 341 127 132 116 137 153 154 147 142 180 189 145 171 257 269 271 283 248 286 248 237 260 266 278 290 264 262 242
338 334 333 325 316 308 300 294 293 296 299 296 290 291 273 256 217 200 132 137 146 140 172 174 174 196 147 171 158 190 225 270 278 264 261 255 264 129 266 275 294 308 307 273 274
340 340 332 328 317 307 297 288 284 288 289 288 258 221 285 237 14 342 151 161 175 175 154 214 159 145 137 359 292 305 328 320 227 246 247 166 302 190 247 310 316 304 303 301 258
339 339 337 326 319 311 301 294 288 279 269 254 215 245 248 240 333 139 161 199 184 228 270 286 161 44 94 99 18 37 40 352 283 276 265 122 277 300 159 177 243 270 279 278 277
341 339 337 331 323 318 311 299 284 262 232 162 139 190 271 318 230 198 155 192 161 198 231 243 114 93 37 83 13 359 233 237 305 230 262 137 289 266 309 333 308 284 295 303 290
341 338 333 329 326 321 319 304 125 129 160 184 258 331 279 245 192 183 184 122 67 1 22 81 60 90 50 84 222 217 236 242 253 284 130 305 254 277 283 309 288 304 311 305 286
340 336 333 327 323 323 335 41 20 348 211 202 192 240 279 285 182 198 147 106 73 68 194 28 96 216 222 200 192 220 232 252 262 271 188 242 247 260 266 286 278 274 292 303 283
337 336 332 326 322 309 240 145 204 184 297 231 247 247 264 43 337 256 121 136 133 191 117 26 242 226 210 197 219 236 264 274 278 264 153 265 252 252 248 236 223 241 278 273 283
333 331 331 327 324 144 213 229 120 122 268 291 191 207 205 143 215 248 149 148 161 175 184 180 232 133 176 216 202 232 193 250 229 309 274 292 280 257 256 242 264 254 243 270 253
330 329 333 331 85 295 248 167 288 172 35 275 248 263 130 133 234 204 179 142 194 201 158 228 254 210 192 242 167 256 196 231 255 306 268 131 283 283 242 249 256 266 262 253 267
325 326 331 320 305 227 344 330 150 65 344 182 142 127 167 160 282 207 160 107 195 176 131 240 196 157 205 234 129 235 196 224 245 245 209 259 272 251 331 280 269 256 254 257 258
323 322 326 89 168 254 311 313 72 40 258 6 115 158 141 265 314 109 141 84 147 168 220 244 284 177 219 253 176 233 279 44 49 112 234 219 213 187 204 228 257 279 270 274 296
320 318 314 191 220 313 319 66 47 188 322 3 339 343 210 198 224 198 165 176 192 136 238 274 252 255 201 283 283 152 66 313 306 259 265 229 242 239 231 247 241 292 322 322 318
322 317 193 220 268 343 328 64 202 343 353 343 324 318 79 16 23 350 133 203 203 135 101 207 283 184 184 194 210 210 166 179 244 230 282 245 242 240 220 312 333 92 277 320 336
323 335 87 281 201 215 67 93 314 6 338 340 324 45 19 5 27 12 354 283 304 174 172 230 268 326 349 311 154 204 200 204 281 331 275 225 293 300 269 310 8 316 336 326 315
341 345 8 352 146 64 80 203 112 39 347 14 32 20 17 11 16 29 313 291 0 289 85 227 274 285 302 310 244 206 179 253 57 283 259 236 233 234 238 303 322 342 332 317 311
29 53 281 335 11 45 108 233 208 50 29 359 334 308 318 335 324 321 286 309 359 3 280 154 116 273 322 229 241 297 96 80 356 185 259 291 250 217 204 296 286 307 310 288 295
3 57 312 352 47 19 43 325 351 14 6 215 196 237 235 231 244 254 255 241 335 2 6 12 198 237 236 259 288 268 270 262 226 208 227 259 258 289 223 274 260 293 307 297 300
34 281 325 27 72 18 330 323 330 24 354 351 322 43 41 266 294 320 328 85 42 11 108 356 205 297 297 78 50 90 227 142 104 185 196 239 265 287 348 343 323 324 326 328 319
47 17 341 32 35 60 360 285 327 336 25 347 299 76 20 335 282 284 268 296 340 340 318 101 243 218 252 272 313 269 231 236 225 237 254 241 279 290 319 320 323 333 329 329 319
27 19 177 345 9 5 283 306 318 336 8 349 342 86 74 261 290 245 303 320 312 287 246 143 250 231 267 260 262 267 265 259 249 245 229 279 274 294 296 296 284 290 304 326 327
79 44 358 233 322 344 337 314 307 351 322 310 252 319 332 274 260 278 288 265 259 274 162 155 254 239 264 274 258 258 257 255 253 262 264 263 273 176 285 293 294 324 328 311 307
318 1 107 307 311 326 285 347 315 332 274 238 324 322 302 281 276 266 248 253 238 244 237 192 200 22 275 314 324 272 259 220 235 231 234 258 281 354 324 327 323 320 304 298 305